This demonstration page uses our WeatherBlox Daily Observations layout. Learn more.

Left ArrowRight Arrow

39.01783, -85.05884

Hourly Observations for November 21, 2021

Temp ( °F °C ) Dew Point ( °F °C ) Humidity (%) Winds ( mph kmh ) Pressure ( in mb ) Visibility ( mi km ) Precip ( " mm )
12:52 am 00:52 Partly Cloudy 40 4.4 27 -2.8 60 60 S 6 9 30.22 1023 10 16 0.00 0.00
1:52 am 01:52 Mostly Cloudy 42 5.6 29 -1.7 60 60 S 5 7 30.22 1023 10 16 0.00 0.00
2:52 am 02:52 Cloudy with Light Rain 44 6.7 31 -0.6 60 60 SSW 6 9 30.22 1023 10 16 0.00 0.00
3:52 am 03:52 Cloudy with Light Rain 43 6.1 34 1.1 71 71 SW 3 6 30.20 1023 10 16 0.01 0.25
4:52 am 04:52 Cloudy 42 5.6 35 1.7 76 76 S 3 6 30.19 1022 10 16 0.00 0.00
5:52 am 05:52 Cloudy 42 5.6 36 2.2 79 79 SSE 3 6 30.19 1022 10 16 0.00 0.00
6:52 am 06:52 Cloudy with Light Rain 43 6.1 36 2.2 76 76 S 3 6 30.19 1022 10 16 0.00 0.00
7:52 am 07:52 Cloudy with Light Rain 42 5.6 37 2.8 82 82 S 8 13 30.16 1022 5 8 0.07 1.78
8:52 am 08:52 Cloudy with Rain 42 5.6 38 3.3 85 85 S 6 9 30.15 1021 3 5 0.07 1.78
9:33 am 09:33 Cloudy with Rain 42 5.6 38 3.3 85 85 S 8 13 30.16 1021 3 5 0.07 1.78
9:52 am 09:52 Cloudy with Light Rain 42 5.6 38 3.3 85 85 S 7 11 30.13 1020 6 10 0.08 2.03
10:12 am 10:12 Cloudy with Light Rain 42 5.6 39 3.9 89 89 S 8 13 30.17 1022 6 10 0.01 0.25
10:25 am 10:25 Cloudy with Heavy Rain 42 5.6 39 3.9 89 89 SSW 10 17 30.14 1021 2 3 0.03 0.76
10:52 am 10:52 Cloudy with Light Rain 42 5.6 39 3.9 89 89 SSW 7 11 30.11 1020 5 8 0.07 1.78
11:52 am 11:52 Cloudy 43 6.1 40 4.4 89 89 SSW 8 13 30.09 1019 8 13 0.01 0.25
12:13 pm 12:13 Cloudy with Rain 43 6.1 40 4.4 89 89 SSW 9 15 30.09 1019 2 3 0.00 0.00
12:52 pm 12:52 Cloudy with Light Rain 44 6.7 40 4.4 85 85 SSW 9 15 30.05 1018 2 3 0.07 1.78
1:05 pm 13:05 Cloudy with Light Rain 44 6.7 41 5 89 89 SW 9 15 30.07 1018 3 5 0.01 0.25
1:52 pm 13:52 Cloudy 44 6.7 41 5 89 89 SW 9 15 30.04 1017 3 5 0.03 0.76
2:52 pm 14:52 Cloudy with Mist and Fog 45 7.2 42 5.6 90 90 SW 9 15 30.02 1017 3 5 0.00 0.00
3:06 pm 15:06 Cloudy with Mist and Fog 45 7.2 42 5.6 90 90 WSW 9 15 30.04 1017 2 2 0.00 0.00
3:25 pm 15:25 Cloudy with Mist and Fog 45 7.2 42 5.6 90 90 SW 8 13 30.03 1017 1 1 0.00 0.00
3:52 pm 15:52 Cloudy with Mist and Fog 45 7.2 42 5.6 90 90 WSW 8 13 30.01 1016 1 1 0.00 0.00
4:52 pm 16:52 Cloudy with Mist and Fog 45 7.2 43 6.1 93 93 WSW 7 11 30.02 1017 1 1 0.00 0.00
5:42 pm 17:42 Cloudy with Mist and Fog 45 7.2 43 6.1 93 93 W 8 13 30.06 1018 1 1 0.00 0.00
5:47 pm 17:47 Cloudy with Mist and Fog 45 7 43 6 93 93 W 9 15 30.06 1018 2 3 0.00 0.00
5:52 pm 17:52 Cloudy with Mist and Fog 45 7.2 43 6.1 93 93 W 8 13 30.04 1017 2 3 0.00 0.00
6:17 pm 18:17 Cloudy with Mist and Fog 45 7.2 43 6.1 93 93 WSW 6 9 30.07 1018 2 3 0.00 0.00
6:41 pm 18:41 Cloudy with Mist and Fog 45 7.2 43 6.1 93 93 WSW 6 9 30.07 1018 3 4 0.00 0.00
6:52 pm 18:52 Cloudy with Mist and Fog 45 7.2 43 6.1 93 93 WSW 5 7 30.05 1018 3 4 0.00 0.00
7:48 pm 19:48 Cloudy with Mist and Fog 45 7 43 6 93 93 WSW 6 9 30.07 1018 5 8 0.00 0.00
7:52 pm 19:52 Cloudy with Mist and Fog 45 7.2 42 5.6 90 90 SW 7 11 30.04 1017 5 8 0.00 0.00
8:52 pm 20:52 Cloudy with Mist and Fog 45 7.2 42 5.6 90 90 WSW 8 13 30.04 1017 6 10 0.00 0.00
9:52 pm 21:52 Cloudy with Mist and Fog 44 6.7 41 5 89 89 WSW 7 11 30.04 1017 6 10 0.00 0.00
10:52 pm 22:52 Mostly Cloudy with Mist and Fog 44 6.7 41 5 89 89 WSW 10 17 30.04 1017 6 10 0.00 0.00
11:52 pm 23:52 Mostly Cloudy with Mist and Fog 45 7.2 41 5 86 86 W 12 19 30.04 1017 6 10 0.00 0.00
11:55 pm 23:55 Mostly Cloudy with Mist and Fog 44 6.7 41 5 89 89 W 12 19 30.06 1018 6 10 0.00 0.00

Powered by AerisWeather